Chronométrage de la course Marathon International de Deauville Semi Marathon 2019

Espace Organisateurs

BREIZH CHRONO

L’allié des athlètes et sportifs en recherche de performance sportive chronométrée

Annonce :

Retrouvez les résultats du Marathon Individuel et des Marathons Relais à 2 et à 4 sur la page Marathon de Deauville - Live Race.

Résultats : Marathon International de Deauville - Semi Marathon

Classement général Classement Catégorie Nom, prénom Catégorie Sexe Club Temps global
1519 156 DONNET MANON SE F 02:11:03
1526 157 BALOG Elisa SE F 02:11:22
1528 158 MOGE Karine SE F INFOSPORT LOIRET 02:11:23
1531 196 BOULET Aurélien SE M 02:11:27
1539 159 DENOIR Marion SE F 02:11:41
1540 160 MALAURIE Victoria SE F 02:11:44
1541 161 ROSE Gaëlle SE F 02:11:46
1543 197 SALAME Antoine SE M 02:11:52
1544 162 DEWAELE Julia SE F 02:11:53
1554 198 DUPUY Thibault SE M ASDR 02:12:13
1559 163 JOURDAN Aurélie SE F NATURE ET JOGGING 02:12:31
1561 164 GRATIOT Marie SE F 02:12:37
1567 165 CASTILAN Lucile SE F BUSSY RUNNING 02:12:50
1577 166 DROUET AURELIE SE F 02:13:03
1580 167 BOISSON Laure-Hélène SE F 02:13:07
1584 199 DUVAUCHELLE Luis SE M 02:13:12
1595 168 SAVIN Clementine SE F 02:13:35
1597 169 BRIZON Jessica SE F 02:13:36
1607 200 RUEL Nicolas SE M 02:13:59
1609 170 MELEC Aurélie SE F 02:14:01
1610 171 ALIBERT Clémence SE F 02:14:02
1616 172 PICHOT Amélie SE F 02:14:16
1617 173 BESSONNIER Melanie SE F 02:14:19
1623 201 FOUQUER Jaufret SE M 02:14:31
1626 202 MOREAU Marion SE M 02:14:38
1638 203 LEVERRIER Léopold SE M 02:15:03
1645 174 MORIN Audrey SE F 02:15:29
1646 175 BERTOUILLE SOPHIE SE F 02:15:33
1647 176 SCLINGAND Emilie SE F 02:15:33
1648 177 BARNABE Clemence SE F 02:15:33
1649 204 POUCIN Sébastien SE M 02:15:35
1650 178 MAHE FLAVIE SE F 02:15:36
1653 179 GRUGET Aurelie SE F 02:15:38
1656 205 DOMPUT Jessy SE M DOMPUT 02:15:41
1659 180 VAN ENST Ellyn SE F 02:15:49
1661 206 BOURRAT Cédric SE M 02:15:53
1670 181 MARTIN Sophie SE F CA BREZOLLES 02:16:20
1674 182 PLISSON Claire SE F 02:16:26
1682 207 PILLOT Vincent SE M 02:16:58
1691 183 PAULEAU Sophie SE F 02:17:19
1693 184 COSSÉ Marie SE F 02:17:33
1694 208 BELLANGER Antoine SE M 02:17:34
1695 185 ROYER Isabelle SE F 02:17:35
1699 186 ROBLES Cecile SE F 02:17:44
1702 187 LEFEBVRE Justine SE F 02:17:55
1703 209 JAUSSAUD Victor SE M 02:18:01
1710 188 GOMEZ MIGUEL Laura SE F 02:18:10
1711 189 GOURDAIN Solange SE F 02:18:10
1712 210 CALVET Mathieu SE M 02:18:12
1713 190 CHARRIER MARION SE F 02:18:14